x

Cape Elizabeth- 45nm Nw Of Aberdeen, Wa (46041) Wave Buoy

1:50 - Tue 28th Jun 2016 All times are PDT. -7 hours from GMT.

  • Sig Wave height 5.6ft
  • Swell Direction
  • Peak Period 7s
  • Average Period 6s
  • Wind
    11mph, 13mph gusts
  • Sea Temp 55°f
  • Ar Temp 55°f
  • Sea Pressure 1023.5mb
  • Cape Elizabeth- 45nm Nw Of Aberdeen, Wa
  • Cape Elizabeth- 45nm Nw Of Aberdeen, Wa

More Historic Weather Station data

Upgrade to MSW Pro to gain access to the past 30 days of data for over 8000 Wavebouys and Weather Stations around the globe.

Join Pro

Comparision Forecast

View Surf forecast
   
Ter 06/28 1:50 5.5ft 7s 6s 11 13 mph 1023.5mb 55f 55f
12:50 5ft 8s 6s 13 16 mph 1023.6mb 56f 56f
Seg 06/27 11:50 5.5ft 8s 6s 11 13 mph 1023.6mb 55f 56f
10:50 5ft 8s 6s 13 16 mph 1023.8mb 55f 56f
9:50 5.5ft 8s 6s 13 16 mph 1023.5mb 55f 56f
8:50 5.5ft 8s 6s 13 18 mph 1023.3mb 56f 56f
7:50 6ft 10s 6s 13 16 mph 1023.4mb 56f 56f
6:50 5.5ft 9s 6s 16 18 mph 1023.1mb 57f 56f
5:50 6ft 10s 7s 16 18 mph 1023.3mb 57f 57f
4:50 5.5ft 10s 7s 11 16 mph 1023.7mb 57f 57f
3:50 6ft 8s 7s 11 13 mph 1023.7mb 57f 57f
2:50 5.5ft 10s 7s 9 11 mph 1023.6mb 57f 57f
1:50 5ft 10s 7s 9 11 mph 1023.7mb 57f 58f
12:50 5ft 10s 7s 7 9 mph 1023.7mb 56f 57f
11:50 5ft 10s 6s 9 11 mph 1023.4mb 56f 57f
10:50 5ft 16s 6s 11 13 mph 1023.1mb 56f 57f
9:50 5.5ft 7s 6s 11 13 mph 1022.8mb 56f 56f
7:50 5ft 7s 5s 13 16 mph 1022.1mb 56f 56f
6:50 5.5ft 6s 6s 16 18 mph 1021.8mb 55f 56f
5:50 5ft 6s 6s 16 20 mph 1021.4mb 55f 56f
4:50 5ft 6s 6s 16 18 mph 1021.1mb 55f 56f
3:50 4.5ft 7s 6s 11 13 mph 1020.9mb 55f 56f
2:50 4.5ft 16s 6s 11 13 mph 1021mb 55f 56f
1:50 4.5ft 17s 6s 13 16 mph 1020.7mb 56f 56f
12:50 4.5ft 17s 6s 13 18 mph 1020.6mb 56f 56f
Dom 06/26 11:50 4ft 16s 5s 16 18 mph 1020.7mb 56f 56f
10:50 4.5ft 16s 5s 18 20 mph 1020.6mb 56f 56f
9:50 4.5ft 17s 5s 20 22 mph 1020.3mb 56f 57f
8:50 5ft 19s 5s 20 25 mph 1020.2mb 57f 57f
7:50 5ft 17s 5s 20 25 mph 1020.3mb 57f 58f
6:50 5ft 6s 5s 25 29 mph 1020.2mb 57f 58f
5:50 5ft 16s 5s 22 27 mph 1020.8mb 57f 57f
4:50 4.5ft 16s 5s 20 22 mph 1021.2mb 57f 56f
3:50 4.5ft 17s 5s 18 22 mph 1021.7mb 57f 55f
2:50 4.5ft 16s 5s 16 18 mph 1022.3mb 57f 55f
1:50 4.5ft 16s 6s 16 18 mph 1022.6mb 57f 55f
12:50 4.5ft 17s 6s 13 16 mph 1023mb 57f 54f
11:50 4.5ft 17s 6s 11 13 mph 1023.3mb 57f 54f
10:50 4.5ft 17s 6s 11 13 mph 1023.3mb 57f 53f
9:50 4.5ft 16s 6s 11 16 mph 1023.5mb 56f 54f
8:50 4.5ft 17s 5s 11 13 mph 1023.5mb 56f 54f
7:50 4.5ft 17s 6s 13 16 mph 1023.3mb 56f 54f
6:50 5ft 17s 6s 13 16 mph 1023mb 56f 54f
5:50 4.5ft 17s 6s 16 18 mph 1022.9mb 56f 55f
4:50 4.5ft 17s 5s 16 20 mph 1022.8mb 56f 55f
3:50 4.5ft 16s 5s 20 22 mph 1022.9mb 56f 55f
2:50 4.5ft 19s 5s 18 22 mph 1023.1mb 56f 54f
12:50 4.5ft 17s 5s 18 22 mph 1023.6mb 56f 56f
Sáb 06/25 11:50 4.5ft 19s 5s 16 18 mph 1023.8mb 56f 56f
10:50 4.5ft 17s 5s 18 22 mph 1023.9mb 56f 56f
9:50 4.5ft 7s 5s 18 22 mph 1023.8mb 56f 57f
8:50 4.5ft 17s 5s 18 25 mph 1023.7mb 56f 57f
7:50 4ft 17s 5s 20 22 mph 1023.7mb 57f 57f
6:50 4ft 19s 5s 18 22 mph 1024mb 57f 57f
5:50 4ft 19s 5s 18 20 mph 1024.4mb 58f 58f
4:50 4ft 19s 6s 16 20 mph 1024.9mb 58f 58f
3:50 3.5ft 17s 6s 16 20 mph 1025.3mb 58f 57f
2:50 3.5ft 8s 7s 16 18 mph 1025.6mb 58f 57f
1:50 4.5ft 17s 7s 13
mph
1025.8mb 58f 57f
12:50 4.5ft 16s 7s 9 13 mph 1026mb 58f 58f
11:50 4.5ft 16s 7s 9 11 mph 1026.1mb 57f 57f
10:50 4.5ft 7s 7s 9
mph
1026.1mb 57f 57f
9:50 4.5ft 17s 7s 7 9 mph 1026.2mb 57f 56f
8:50 4.5ft 8s 7s 4 7 mph 1025.9mb 57f 56f
7:50 4.5ft 8s 7s 7 9 mph 1025.6mb 57f 56f
6:50 4.5ft 8s 6s 4 7 mph 1025.6mb 57f 56f
5:50 5ft 8s 7s 4
mph
1025.3mb 57f 56f
4:50 5ft 8s 7s 2 4 mph 1025.4mb 57f 56f
3:50 4.5ft 8s 6s 4 7 mph 1025.6mb 58f 56f
2:50 4.5ft 8s 7s 2 4 mph 1025.8mb 58f 57f
1:50 4.5ft 8s 6s 7
mph
1026mb 58f 57f
12:50 4.5ft 8s 6s 4
mph
1026.3mb 58f 58f
Sex 06/24 11:50 4.5ft 8s 7s 4
mph
1026.3mb 58f 58f
10:50 4.5ft 8s 6s 4 7 mph 1026.2mb 58f 57f
9:50 5ft 8s 7s 4 7 mph 1026.3mb 58f 57f
8:50 4.5ft 8s 6s 4 7 mph 1026.1mb 58f 57f
7:50 5ft 7s 6s 9 11 mph 1026.1mb 58f 56f
6:50 5ft 7s 6s 4 7 mph 1025.9mb 58f 57f
5:50 5ft 17s 6s  -  2 mph 1026mb 58f 56f
4:50 5ft 7s 6s 2
mph
1026mb 58f 58f
3:50 5ft 17s 6s  -  2 mph 1025.8mb 58f 58f
2:50 5ft 7s 6s  -  mph 1025.6mb 58f 58f
1:50 4.5ft 17s 6s 2 4 mph 1025.2mb 57f 56f
12:50 4.5ft 17s 6s 9
mph
1024.7mb 57f 55f
11:50 4.5ft 6s 6s 16 18 mph 1024mb 57f 55f
10:50 4.5ft 8s 6s 9
mph
1023.3mb 56f 55f